Regional Weather Roundup
Issued by NWS

Home | Current Version | Previous Version | Graphics & Text | Print | Product List | Glossary On
Versions: 1 2 3 4 5 6 7 8 9 10 11 12 13 14 15 16 17 18 19 20 21 22 23 24 25 26 27 28 29 30 31 32 33 34 35 36 37 38 39 40 41 42 43 44 45 46 47 48 49 50
000
ASUS43 KBIS 251031
RWRND
NORTH DAKOTA REGIONAL WEATHER ROUNDUP
NATIONAL WEATHER SERVICE EASTERN NORTH DAKOTA/GRAND FORKS ND
400 AM CST SUN FEB 25 2018

  NOTE: "FAIR" INDICATES FEW OR NO CLOUDS BELOW 12,000 FEET WITH NO
  SIGNIFICANT WEATHER AND/OR OBSTRUCTIONS TO VISIBILITY.

NDZ001>003-009>011-017-251100-
...NORTHWEST NORTH DAKOTA...

CITY           SKY/WX    TMP DP  RH WIND       PRES   REMARKS
WILLISTON      FAIR      19  12  74 W12       29.61S WCI   7
MINOT          FAIR      20  14  77 W15       29.51F WCI   6
MINOT AFB      FAIR      18  12  80 NW10        N/A  WCI   6
$$

NDZ018>021-031>035-040>046-251100-
...SOUTHWEST NORTH DAKOTA...

CITY           SKY/WX    TMP DP  RH WIND       PRES   REMARKS
BISMARCK       CLOUDY    22  18  85 W16G24    29.59S WCI   8
DICKINSON      MOCLDY    16  14  92 W15       29.59S WCI   1
GARRISON         N/A     21  17  84 NW16      29.54S WCI   7
HETTINGER      FAIR      16  12  84 W20       29.64F WCI  -1
$$

NDZ004>008-012>016-024-026-027-054-251100-
...NORTHEAST NORTH DAKOTA...

CITY           SKY/WX    TMP DP  RH WIND       PRES   REMARKS
GRAND FORKS    CLOUDY    18  15  88 W6        29.49S WCI  10
GRAND FORKS AF FLURRIES  14   9  79 NW8       29.48S WCI   3
DEVILS LAKE    CLOUDY    15  12  88 W10       29.48F WCI   2
$$

NDZ022-023-025-028>030-036>039-047>053-251100-
...SOUTHEAST NORTH DAKOTA...

CITY           SKY/WX    TMP DP  RH WIND       PRES   REMARKS
JAMESTOWN      CLOUDY    16  12  84 W16       29.50F WCI   1
FARGO          FAIR      10   8  92 W9        29.51F WCI  -3
WAHPETON       FAIR       5   1  85 W15       29.55S WCI -13
$$



USA.gov is the U.S. government's official web portal to all federal, state and local government web resources and services.